N3WR Weather Reports


time (UTC)temp
C
wind
direction
speed
KPH
gust
KPH
rain 1hr
cm
rain 24hr
cm
rain mn
cm
humidity
%
barometer
mb
20260505200002 26 170 14.5 27.4 0.00 0.05 0.05 46 1006.8
20260505194500 26 212 16.1 27.4 0.00 0.05 0.05 46 1007.1
20260505193000 26 234 16.1 37.0 0.00 0.05 0.05 42 1007.2
20260505191458 26 269 14.5 27.4 0.00 0.05 0.05 39 1007.3
20260505185959 26 269 14.5 33.8 0.00 0.05 0.05 42 1007.5
20260505184457 26 219 19.3 35.4 0.00 0.05 0.05 42 1007.7
20260505182958 26 186 14.5 27.4 0.00 0.05 0.05 43 1007.8
20260505181500 26 203 16.1 38.6 0.00 0.05 0.05 44 1008.2
20260505175959 25 202 16.1 27.4 0.00 0.05 0.05 45 1008.1
20260505174457 26 209 12.9 22.5 0.00 0.05 0.05 46 1008.2
20260505172958 25 205 14.5 30.6 0.00 0.05 0.05 47 1008.2
20260505171458 25 180 16.1 30.6 0.00 0.05 0.05 47 1008.5
20260505165959 25 208 11.3 24.1 0.00 0.05 0.05 54 1008.5
20260505164458 25 278 12.9 27.4 0.00 0.05 0.05 54 1008.8
20260505162958 24 178 12.9 27.4 0.00 0.05 0.05 53 1009.1
20260505161458 23 238 11.3 22.5 0.00 0.05 0.05 55 1009.4
20260505152957 22 263 8.0 14.5 0.00 0.05 0.05 61 1009.7
20260505151500 22 248 9.7 22.5 0.00 0.05 0.05 61 1009.6
20260505124458 16 208 6.4 12.9 0.00 0.05 0.05 78 1010.6
20260505122958 15 174 3.2 6.4 0.00 0.05 0.05 82 1010.3
20260505121500 14 259 3.2 6.4 0.00 0.05 0.05 83 1010.3
20260505115959 13 224 1.6 6.4 0.00 0.05 0.05 87 1010.3
20260505114458 12 351 0.0 3.2 0.00 0.05 0.05 90 1010.3
20260505112958 11 351 0.0 4.8 0.00 0.05 0.05 91 1010.2
20260505111458 11 169 0.0 3.2 0.00 0.05 0.05 90 1010.1
20260505101458 11 45 1.6 8.0 0.00 0.05 0.05 89 1009.8
20260505100000 11 46 3.2 4.8 0.00 0.05 0.05 88 1009.7
20260505094457 11 46 0.0 4.8 0.00 0.05 0.05 88 1009.5
20260505093001 12 38 1.6 3.2 0.00 0.05 0.05 86 1009.4
20260505091458 12 38 1.6 3.2 0.00 0.05 0.05 86 1009.4
20260505090003 12 136 3.2 8.0 0.05 0.05 0.05 84 1009.4
20260505084500 13 115 1.6 4.8 0.05 0.05 0.05 82 1009.5
20260505082958 13 157 1.6 4.8 0.05 0.05 0.05 79 1009.6
20260505081458 14 314 3.2 6.4 0.05 0.05 0.05 76 1009.6
20260505075958 15 225 4.8 8.0 0.00 0.00 0.00 73 1009.6
20260505074457 15 244 6.4 14.5 0.00 0.00 0.00 72 1009.4
20260505072957 15 293 4.8 9.7 0.00 0.00 0.00 69 1009.2
20260505071459 15 199 4.8 8.0 0.00 0.00 0.00 69 1009.3
20260505070004 15 204 4.8 9.7 0.00 0.00 0.00 68 1009.3
20260505064457 15 232 4.8 11.3 0.00 0.00 0.00 68 1009.4
20260505062957 14 242 1.6 8.0 0.00 0.00 0.00 69 1009.3
20260505061457 13 290 0.0 4.8 0.00 0.00 0.00 70 1009.5
20260505060003 13 323 1.6 4.8 0.00 0.00 0.00 70 1009.5
20260505054457 13 324 0.0 1.6 0.00 0.00 0.00 67 1009.4
20260505052957 14 325 1.6 3.2 0.00 0.00 0.00 65 1009.5
20260505051457 14 290 1.6 3.2 0.00 0.00 0.00 64 1009.4
20260505041459 15 222 3.2 9.7 0.00 0.00 0.00 61 1009.0
20260505040003 16 304 3.2 8.0 0.00 0.00 0.00 59 1008.9
20260505034459 16 237 4.8 9.7 0.00 0.00 0.00 58 1008.9
20260505033002 16 209 4.8 8.0 0.00 0.00 0.00 58 1009.0
20260505031459 16 214 3.2 9.7 0.00 0.00 0.00 57 1009.0
20260505030000 16 225 4.8 12.9 0.00 0.00 0.00 56 1009.0
20260505024459 16 215 6.4 16.1 0.00 0.00 0.00 56 1009.2
20260505022958 16 169 6.4 11.3 0.00 0.00 0.00 56 1009.1
20260505021459 16 184 6.4 9.7 0.00 0.00 0.00 56 1009.2
20260505020002 16 203 6.4 11.3 0.00 0.00 0.00 55 1009.2
20260505014501 17 187 4.8 8.0 0.00 0.00 0.00 55 1009.4
20260505012959 17 199 4.8 11.3 0.00 0.00 0.00 55 1009.1
20260505011458 17 201 4.8 9.7 0.00 0.00 0.00 54 1009.0
20260505010013 17 168 6.4 16.1 0.00 0.00 0.00 53 1009.0
20260505004459 17 193 6.4 16.1 0.00 0.00 0.00 52 1008.9
20260505003001 18 185 6.4 12.9 0.00 0.00 0.00 51 1008.8
20260505001459 18 182 8.0 19.3 0.00 0.00 0.00 50 1008.6
20260505000000 18 176 8.0 14.5 0.00 0.00 0.00 50 1008.5
20260504234459 19 192 9.7 17.7 0.00 0.00 0.00 50 1008.4
20260504232959 20 171 12.9 30.6 0.00 0.00 0.00 48 1008.2
20260504231501 20 162 12.9 24.1 0.00 0.00 0.00 46 1008.1
20260504230004 21 201 11.3 22.5 0.00 0.00 0.00 45 1007.8
20260504224458 21 173 9.7 19.3 0.00 0.00 0.00 44 1007.7
20260504222959 21 209 9.7 17.7 0.00 0.00 0.00 45 1007.6
20260504221459 21 224 9.7 20.9 0.00 0.00 0.00 45 1007.8
20260504220002 21 211 11.3 17.7 0.00 0.00 0.00 45 1007.9
20260504214458 21 202 12.9 24.1 0.00 0.00 0.00 45 1008.0
20260504212959 21 222 9.7 17.7 0.00 0.00 0.00 46 1008.2
20260504211459 21 194 8.0 14.5 0.00 0.00 0.00 46 1008.2
20260504210003 21 173 11.3 24.1 0.00 0.00 0.00 45 1008.2
20260504204458 21 216 11.3 24.1 0.00 0.00 0.00 43 1008.3
20260504203001 21 169 11.3 25.7 0.00 0.00 0.00 44 1008.6
20260504201459 21 208 12.9 24.1 0.00 0.00 0.00 44 1008.6